Theta_e
329 332 335 334 335 336 336 334 333 334 332 330 329 328 328 330 336 343 344 339 342 344 346 344 345 349 344 348 348 346 342 341 335 329 334 337 335 328 325 320 315 315 312
327 330 331 336 334 338 336 334 333 331 331 329 327 325 324 325 330 334 334 335 338 337 340 342 343 343 347 349 347 345 342 345 339 328 329 330 330 331 327 319 320 318 314
326 326 333 336 335 337 337 336 332 329 328 328 326 325 323 323 323 324 327 331 336 339 340 340 341 343 344 345 346 344 342 341 339 332 326 328 328 326 327 322 323 325 316
325 325 331 334 334 334 335 335 332 330 328 327 327 326 325 324 324 323 322 328 334 335 340 340 340 341 343 344 344 344 341 337 335 331 327 323 326 325 326 319 318 321 313
324 325 327 330 330 332 334 332 332 332 329 328 326 326 326 325 323 326 324 325 331 335 337 337 340 339 331 336 343 343 340 333 330 327 323 320 322 321 321 321 318 319 320
322 322 325 326 326 331 332 332 333 331 329 330 328 325 329 324 312 309 316 324 326 330 334 337 340 333 330 320 321 325 336 339 326 324 319 318 321 319 325 322 321 318 312
319 319 320 321 322 325 326 328 329 331 333 332 331 329 329 331 310 307 309 324 326 328 333 336 335 333 331 339 321 318 320 317 321 322 320 318 319 323 324 324 324 320 317
317 317 318 318 320 323 325 326 328 330 331 331 331 331 330 329 310 305 306 323 325 327 330 334 337 337 338 337 339 334 334 326 324 326 324 322 324 327 327 327 327 324 322
314 314 315 317 319 321 322 324 326 328 328 329 328 328 329 329 309 304 309 323 323 326 328 333 336 336 323 311 335 332 327 324 313 315 316 313 310 311 321 324 319 317 313
313 314 315 317 318 320 322 324 326 326 326 324 325 328 322 327 311 304 308 320 322 321 328 332 317 326 312 308 335 328 320 316 317 314 314 309 312 315 311 325 321 315 312
313 313 314 317 319 320 320 323 324 321 322 323 322 325 327 326 325 305 303 320 319 319 319 325 329 308 302 304 314 324 320 317 314 318 318 319 320 323 320 325 324 319 313
309 309 309 312 313 313 318 319 317 316 319 319 316 318 321 324 313 310 303 302 314 321 322 323 328 303 302 302 309 306 304 311 318 316 315 315 315 317 317 322 325 324 321
306 305 307 307 307 309 311 312 313 313 313 314 314 315 317 319 321 307 304 302 302 313 323 320 310 300 299 301 303 301 304 316 315 312 312 313 314 318 320 318 317 319 318
299 300 302 302 302 304 305 307 307 306 311 309 311 312 315 316 319 324 320 317 304 309 313 318 311 308 305 309 304 307 315 315 313 311 312 312 313 313 312 312 309 308 308
297 298 297 298 299 300 302 304 303 306 306 310 311 312 311 312 314 306 309 321 327 315 316 310 307 307 309 308 309 312 314 312 313 311 312 310 307 310 308 308 307 306 304
295 295 295 296 296 297 298 299 298 297 297 297 296 301 309 302 299 299 301 297 298 299 310 308 307 307 307 307 308 310 312 311 313 312 311 308 307 306 305 306 307 306 305
294 295 295 295 295 296 297 297 297 300 296 296 296 296 296 300 298 295 295 294 295 299 312 308 307 306 307 308 309 311 310 315 313 312 307 309 306 304 303 305 306 305 303
297 295 296 296 296 297 297 298 298 298 299 302 299 298 296 295 295 296 294 294 302 302 315 309 307 307 307 308 310 310 311 312 309 307 307 309 305 303 303 304 305 304 303
296 297 298 298 297 298 299 298 299 299 300 301 304 301 298 296 294 294 293 303 303 305 315 311 310 309 309 310 312 311 310 308 307 307 308 306 305 304 305 305 305 297 299
294 294 294 297 299 300 299 299 299 300 300 302 303 305 308 297 298 300 300 302 307 307 312 311 310 310 310 310 309 310 308 306 307 308 307 306 306 306 306 306 305 303 304
294 295 292 296 297 298 301 301 301 301 302 304 306 310 295 304 304 305 301 304 308 308 310 309 309 310 309 309 308 307 306 306 307 308 306 306 307 308 308 307 306 305 305
298 298 299 298 299 300 301 302 304 305 306 308 306 298 289 302 305 303 305 308 309 310 310 309 308 309 309 309 308 308 307 306 309 308 307 307 309 309 308 307 306 305 305
297 299 299 301 302 299 304 307 307 307 311 305 303 301 301 303 304 303 306 307 309 308 308 308 308 308 309 309 309 308 307 309 311 310 309 309 310 309 308 307 306 306 305
302 304 305 306 307 308 310 310 315 304 306 304 303 303 305 305 305 305 306 306 306 307 308 308 309 308 308 308 309 310 311 312 312 313 313 311 311 306 310 308 306 305 305
306 312 313 313 311 309 309 309 308 306 305 304 303 306 307 306 304 304 305 305 304 305 306 308 309 309 309 308 308 309 302 295 311 305 314 314 312 311 310 309 308 306 305
303 305 306 308 308 307 306 304 304 303 304 304 305 305 304 303 303 304 304 304 304 304 305 307 307 308 308 308 308 297 292 292 300 298 313 313 310 309 308 308 307 305 303
Wind_Speed
12 12 12 12 12 11 10 10 10 8 8 8 8 9 10 11 10 11 10 12 14 12 12 13 13 12 10 8 8 9 8 5 7 2 6 10 11 12 12 12 14 11 9
14 14 14 12 12 11 11 11 10 9 9 10 9 9 9 10 10 11 14 14 13 13 14 15 15 10 12 11 8 11 11 9 8 10 9 10 11 11 13 12 11 11 11
15 15 14 12 13 11 11 11 11 11 11 11 11 11 10 10 11 12 14 15 14 13 14 14 15 13 11 10 10 9 9 7 9 9 9 9 10 9 12 10 9 8 11
14 15 13 13 12 11 11 11 12 12 13 12 12 13 12 12 11 12 13 13 14 15 13 13 15 14 13 12 12 13 9 9 9 8 10 10 11 11 9 9 8 7 11
10 12 10 11 12 13 12 12 12 12 13 15 15 14 14 12 10 12 12 12 13 15 15 14 15 16 14 13 10 12 11 9 8 11 10 9 11 12 13 10 10 9 11
11 11 12 13 14 13 13 13 13 13 14 15 15 16 14 12 11 7 7 11 14 15 15 14 15 12 14 12 15 15 13 14 12 12 11 12 14 11 12 12 10 10 10
14 14 15 15 16 15 15 15 15 15 14 15 15 16 15 14 12 11 12 12 13 14 16 14 14 13 15 16 12 15 15 12 14 12 14 14 13 14 13 12 12 10 9
17 17 17 18 18 16 16 16 16 14 15 15 15 16 16 13 12 13 13 14 14 15 16 17 15 16 15 13 13 13 16 15 12 9 12 11 11 14 13 11 10 9 7
18 19 20 20 19 17 17 16 15 14 14 15 15 17 16 14 11 12 11 15 15 16 16 17 16 17 15 12 12 11 12 11 2 8 9 11 14 13 12 10 10 11 10
20 20 20 19 18 18 17 17 15 14 15 14 17 16 17 16 12 12 12 13 15 13 14 16 18 17 12 16 15 13 12 11 10 7 8 11 13 13 14 11 10 11 10
20 21 20 18 18 17 16 14 13 12 14 14 16 15 16 15 14 15 18 15 14 14 14 12 12 11 15 19 17 13 15 13 12 12 9 10 10 11 8 9 10 8 9
20 21 21 20 16 15 17 16 16 14 15 16 15 16 14 16 18 18 18 21 18 15 15 12 11 12 15 19 15 12 15 14 12 10 10 10 11 10 10 8 6 3 6
17 19 18 19 18 17 18 17 14 14 14 15 15 14 15 14 15 21 21 23 21 17 15 12 7 15 17 14 13 21 21 12 12 11 10 11 12 11 10 10 10 11 13
18 18 16 16 17 16 13 12 13 13 15 13 14 14 14 13 13 11 13 14 15 13 14 9 11 13 15 12 14 19 13 13 14 11 10 12 11 11 10 9 10 10 10
17 16 15 14 16 15 14 13 14 14 14 13 15 12 14 13 11 5 8 10 8 8 8 6 6 7 8 10 12 15 12 12 11 11 7 10 14 12 10 10 10 10 10
15 13 13 12 11 12 12 13 18 21 22 23 15 13 11 11 19 6 8 10 12 16 4 7 9 10 12 12 14 13 13 17 14 12 12 12 14 13 12 11 11 10 11
16 15 11 13 11 12 12 12 13 13 22 26 24 20 19 19 15 12 1 3 14 15 7 8 10 11 11 12 13 13 13 14 14 13 14 13 13 12 14 12 12 11 11
17 23 14 12 11 11 11 12 11 11 11 10 16 20 21 23 23 25 12 8 4 11 9 10 10 11 12 12 12 12 13 12 13 13 14 13 13 13 13 12 12 13 12
14 12 12 11 12 13 11 11 11 12 12 11 10 12 17 25 22 22 15 12 10 12 10 11 12 13 13 14 13 13 13 11 12 13 14 13 13 13 13 12 12 13 13
14 21 18 12 10 11 11 11 11 11 11 11 10 11 7 5 9 12 11 12 11 11 9 11 11 13 15 15 14 14 14 14 13 12 13 13 13 12 12 14 13 14 12
11 11 12 10 12 12 10 10 11 10 10 10 11 12 10 9 8 10 11 12 12 12 11 12 12 13 14 16 17 15 16 14 15 14 14 14 14 13 13 12 13 13 12
10 10 9 10 10 10 11 10 11 10 11 12 5 3 8 6 6 7 10 12 12 12 11 12 13 13 15 16 18 18 17 17 16 15 14 14 13 13 12 13 13 12 13
11 11 10 9 9 10 9 11 10 11 11 6 5 5 7 5 6 7 8 9 10 11 11 12 13 13 13 14 16 16 17 17 16 15 15 15 13 13 13 13 13 12 13
9 10 9 8 8 8 9 10 8 5 5 5 5 6 7 7 7 8 8 9 9 11 11 12 13 17 14 15 14 13 14 13 14 16 20 16 14 13 13 14 13 15 13
7 3 2 4 4 3 3 3 4 4 5 5 5 5 5 5 8 8 10 10 11 11 13 13 13 18 19 21 20 20 16 16 17 14 13 16 16 17 14 12 14 13 15
10 9 7 5 5 4 3 3 4 4 4 4 4 5 6 6 8 9 9 12 11 12 15 12 16 17 20 19 20 15 13 13 13 13 14 12 14 12 12 14 19 12 16
Wind_Direction
226 225 223 215 212 212 206 208 213 212 225 237 244 257 265 267 266 272 261 265 269 258 255 266 259 241 244 230 233 231 224 179 226 138 163 154 150 147 167 119 147 152 152
232 229 226 220 213 211 217 217 212 219 227 241 249 251 261 270 275 272 273 270 253 240 261 252 256 257 236 237 226 238 224 209 206 167 165 158 162 149 147 153 169 169 158
249 232 215 223 214 219 214 221 224 229 233 236 241 247 253 261 270 272 271 270 268 246 241 263 260 248 248 235 224 225 228 218 206 164 148 152 165 146 155 160 183 178 150
252 257 228 203 220 225 225 223 229 235 243 245 243 246 252 256 264 271 273 270 269 269 251 240 258 256 248 233 229 219 219 205 162 167 155 156 169 159 165 166 184 185 142
250 261 238 235 224 227 232 237 238 244 248 251 251 248 250 252 253 256 266 272 268 268 266 255 241 242 247 226 221 222 200 196 170 169 165 159 170 171 178 170 190 191 169
300 281 258 241 236 235 237 245 247 249 251 252 252 252 252 251 254 231 250 267 276 279 276 267 261 246 240 210 218 214 208 190 182 176 171 173 178 176 180 177 193 181 182
274 269 266 262 258 254 252 250 247 246 246 245 247 249 251 250 237 234 237 255 258 261 266 268 271 257 242 244 211 210 179 193 189 172 179 179 174 179 178 182 195 179 188
266 266 265 263 258 252 252 251 250 248 247 248 247 247 249 246 230 225 232 253 258 257 256 255 257 257 256 251 233 209 192 188 197 173 185 182 179 171 184 182 170 167 117
269 268 267 265 263 259 255 254 250 250 249 248 249 251 249 250 229 225 231 257 258 252 248 247 248 245 240 200 222 202 196 189 190 198 173 180 158 171 164 165 162 173 168
273 273 273 271 270 268 264 260 256 250 251 251 251 243 241 247 232 217 224 256 259 257 250 245 235 241 216 177 196 188 185 176 161 153 152 130 145 149 154 169 174 181 170
282 285 281 279 281 275 280 287 265 251 255 262 262 256 260 255 250 219 219 242 254 261 251 247 249 216 177 177 189 180 180 163 161 142 142 140 144 151 166 182 181 195 171
291 287 287 286 281 284 278 265 261 256 246 245 249 252 253 252 244 243 227 224 242 252 261 251 246 175 185 182 178 154 149 154 153 142 139 153 147 161 169 172 176 287 150
277 274 273 272 271 274 265 260 265 250 243 242 245 241 236 234 240 229 223 220 221 235 247 263 196 178 176 175 167 147 153 161 153 140 164 158 154 165 146 108 97 91 91
274 270 269 266 263 259 258 269 256 249 257 243 249 254 259 254 258 243 216 218 229 218 234 232 192 179 178 169 150 153 166 163 156 161 173 163 137 136 138 144 147 136 127
266 265 263 260 260 261 256 253 253 262 249 251 246 247 246 260 261 353 318 245 224 209 191 140 144 149 156 153 156 165 160 158 149 149 168 165 137 144 151 162 161 151 149
261 259 254 253 252 250 248 253 243 244 254 264 267 256 257 271 292 341 335 329 128 143 157 161 161 161 165 165 167 168 169 166 158 164 170 169 145 155 158 164 163 159 150
257 259 256 249 247 247 243 243 250 244 233 235 240 239 240 254 264 278 236 195 182 163 177 171 163 164 168 171 173 169 163 163 171 171 159 161 155 159 160 165 161 156 155
259 253 249 247 242 241 240 242 243 246 246 245 234 235 232 233 238 249 231 155 239 227 186 172 165 165 163 169 169 161 156 166 174 150 152 166 162 155 162 166 162 159 156
269 262 256 247 236 237 238 236 238 240 245 246 244 235 228 232 225 226 202 228 219 215 205 172 166 166 171 167 165 156 148 161 154 152 167 163 160 162 168 163 161 156 151
263 254 246 251 251 230 227 230 236 236 237 239 239 240 220 152 203 207 201 203 206 205 201 169 170 172 171 164 160 161 150 155 155 172 175 161 158 171 169 164 159 156 159
262 257 234 236 235 237 243 223 227 230 235 237 239 232 185 192 203 191 187 192 193 193 186 170 169 170 166 162 157 163 152 162 158 180 167 156 169 166 166 156 156 164 154
266 255 243 226 227 226 226 228 236 230 229 234 221 140 169 204 193 184 195 185 183 183 177 166 165 167 167 165 163 161 156 162 171 166 161 161 168 163 159 156 157 171 154
260 252 239 230 220 220 218 227 227 231 228 187 166 162 186 182 179 183 185 175 175 164 158 159 159 160 163 162 161 159 158 168 167 158 156 162 165 162 157 159 162 168 162
262 247 236 208 212 211 213 229 227 172 159 162 173 171 175 179 183 167 157 150 145 146 152 153 153 150 153 154 152 161 169 164 151 157 161 162 164 160 155 159 163 165 163
303 270 237 188 175 171 131 138 136 139 161 170 173 171 162 146 139 135 134 137 136 138 141 144 144 146 149 148 157 173 161 140 159 152 156 165 154 162 159 157 162 160 156
10 25 26 35 72 94 113 112 117 126 144 145 126 113 120 125 125 130 132 135 136 135 135 135 139 144 141 150 180 134 131 128 134 149 157 155 154 160 156 160 158 154 157